Pagina principale
METAR-TAF:

METAR-TAF

Aeroporti :

Irene, Sudafrica

latitudine: 25-54-36S, longitudine: 28-12-40E, altezza: 1523 m

Osservazione

Il bollettino è stato emesso 13 ore e 12 minuti fa, alle 05:48 UTC
Vento 4 kt da est
Temperature 21°C
Umidità 73%
Pressione 1025 hPa
Visibilità 10 km o più
Nubi sparse ad un'altezza di 2000 ft

METAR: FAIR 160548Z 09004KT 9999 SCT020 21/16 Q1025

Ora: 21:00 (19:00 UTC)


TAF: mancante

Osservazioni e previsioni meteorologiche di più di 4000 aeroporti (messaggi METAR e TAF).

Le stazioni disponibili sono rappresentate dai dischi gialli e rossi sulla carta.

Puntare il mouse per vedere il nome della stazione.

Clicca sopra per visualizzare le osservazioni e previsioni meteorologiche.

Per cambiare la mappa : fare clic sui pulsanti verdi con una croce nera per ingrandire, il pulsante verde con un trattino per diminuire, o sulla freccia verde per le mappe adiacenti.


METAR-TAF: